Temperature
19 19 18 18 18 18 18 18 18 18 18 18 18 17 17 17 17 17 17 17 17 17 17 17 17 17 17 17 17 17 16 16 16 16 15 15 15 15 15 15 14 14 14
18 18 18 18 18 18 18 18 18 18 17 17 17 17 17 17 17 17 17 16 16 16 16 16 16 16 16 16 16 16 16 16 16 15 15 15 14 14 14 14 14 13 13
18 18 18 18 18 18 18 18 18 17 17 17 17 17 17 16 16 16 16 16 16 16 16 16 16 16 16 16 16 16 15 15 15 15 14 14 14 14 13 13 13 13 12
18 18 18 18 18 18 17 17 17 17 17 17 17 16 16 16 16 16 16 16 16 16 15 15 15 15 15 15 15 15 15 15 15 14 14 13 13 13 13 12 12 12 12
18 18 18 18 18 17 17 17 17 17 17 16 16 16 16 16 16 15 15 15 15 15 15 15 15 15 15 14 14 14 14 14 14 14 13 13 13 13 12 12 12 12 11
18 18 18 17 17 17 17 17 16 16 16 16 16 16 16 15 15 15 15 15 15 14 14 14 14 14 14 14 14 14 14 14 13 13 13 12 12 12 12 12 12 11 11
18 18 17 17 17 17 16 16 16 16 16 16 16 15 15 15 15 15 15 14 14 14 14 14 13 14 13 13 13 13 13 13 13 13 12 12 12 11 11 11 11 11 11
18 17 17 17 17 17 16 16 16 15 15 15 15 15 15 14 14 14 14 14 14 13 13 13 13 13 13 13 13 13 13 12 12 12 12 11 11 11 11 11 10 10 10
17 17 17 17 17 16 16 15 15 15 15 15 15 14 14 14 14 14 14 13 13 13 13 13 12 12 12 12 12 12 12 11 11 11 11 11 11 10 10 10 10 10 9
17 17 17 17 16 16 15 15 15 15 14 14 14 14 14 14 14 13 13 13 13 13 12 12 12 12 11 11 11 11 11 10 10 10 10 10 10 10 9 10 10 9 9
17 17 17 16 16 16 15 15 14 14 14 14 14 13 13 13 13 13 13 13 12 12 11 11 11 11 11 11 11 10 10 10 10 10 9 9 9 9 9 9 9 9 9
17 16 16 16 15 15 15 14 14 14 14 13 13 13 13 13 12 12 12 12 12 12 11 11 11 10 10 10 10 10 10 9 9 9 9 9 8 8 8 8 8 8 8
16 16 15 15 15 15 14 14 14 13 13 13 13 12 12 12 12 12 11 11 11 11 11 10 10 10 9 9 9 9 9 9 9 9 9 8 8 8 8 8 8 8 8
15 15 14 14 14 14 14 13 13 13 13 12 12 12 11 11 11 11 11 11 11 10 10 10 9 9 9 9 9 9 9 9 8 8 8 8 8 8 8 8 8 8 8
15 14 14 14 13 13 13 13 13 12 12 12 12 12 11 11 11 11 11 10 10 10 10 9 9 9 9 8 8 8 8 8 8 8 8 8 8 8 8 7 7 8 8
14 14 14 13 13 13 13 12 12 12 12 12 12 12 11 11 11 10 10 10 10 9 9 9 9 9 9 8 8 8 8 8 8 8 7 8 8 8 7 7 7 7 7
14 14 13 13 13 12 12 12 12 11 11 11 11 11 11 10 10 10 10 9 9 9 9 9 8 8 8 8 8 8 8 7 7 7 7 7 7 7 7 7 7 7 7
13 13 13 13 12 12 12 11 11 11 11 10 10 10 10 10 9 9 9 9 9 9 8 8 8 8 8 8 8 8 7 7 7 7 7 7 7 7 7 7 7 7 7
13 13 13 12 12 12 11 11 11 11 10 10 10 10 9 9 9 9 9 8 8 8 8 8 8 8 8 7 7 7 7 7 7 7 7 7 7 7 7 7 7 7 7
12 12 12 12 12 11 11 11 11 10 10 10 9 9 9 9 9 8 8 8 8 8 8 8 8 8 7 7 7 7 7 7 7 7 7 7 7 7 7 7 7 7 7
12 12 12 12 11 11 11 11 10 10 10 9 9 9 9 9 8 8 8 8 8 8 8 8 8 7 7 7 7 7 7 7 7 6 6 6 6 6 6 6 7 7 6
11 11 11 11 11 11 10 10 10 10 10 9 9 9 9 9 8 8 8 8 8 8 8 8 8 7 7 7 7 7 7 7 6 6 6 6 6 6 6 6 6 6 6
11 11 11 11 10 10 10 10 10 10 10 9 9 9 9 9 8 8 8 8 8 8 8 8 7 7 7 7 7 7 6 6 6 6 6 6 6 6 6 6 6 6 6
11 11 10 10 10 10 10 10 10 10 10 9 9 9 9 9 9 8 8 8 8 8 8 7 7 7 7 7 6 6 6 6 6 6 6 6 6 6 6 6 6 6 6
10 10 10 10 10 10 10 10 10 10 10 9 9 9 9 9 9 8 8 8 8 8 7 7 7 7 7 6 6 6 6 6 6 6 6 6 6 6 6 6 6 6 6
10 10 10 10 10 10 10 10 10 10 10 10 9 9 9 9 9 9 8 8 8 8 7 7 7 7 7 6 6 6 6 6 6 6 6 6 6 6 5 5 5 5 5
Wind_Speed
4 4 4 4 4 4 2 2 2 2 2 1 1 1 1 1 1 1 2 1 2 2 2 1 2 2 1 2 2 1 0 1 2 1 0 1 2 3 5 6 7 8 8
4 4 4 4 3 3 3 2 2 2 1 1 1 1 1 1 1 1 0 0 0 0 1 1 1 1 0 1 2 1 1 0 2 3 2 1 1 2 3 4 5 7 8
6 5 4 4 3 3 3 3 3 3 2 2 2 2 2 2 2 2 2 2 2 2 2 2 2 2 2 1 1 2 1 1 1 3 2 1 1 2 2 3 5 5 7
7 6 5 4 3 3 3 3 3 3 3 3 3 3 3 3 3 3 2 2 3 3 4 4 4 3 2 2 2 2 1 1 1 2 3 2 1 2 2 3 3 2 3
7 6 5 4 4 3 3 3 3 4 4 4 3 4 3 3 2 2 2 3 3 4 5 5 6 8 8 6 4 3 2 1 1 2 2 2 1 1 1 2 3 4 3
6 6 6 5 5 4 4 4 4 4 4 4 4 4 4 3 5 6 5 4 5 5 5 4 5 7 9 11 12 12 9 5 2 2 2 3 2 2 2 2 2 2 2
6 6 6 6 5 4 4 4 4 4 5 5 5 5 6 6 7 7 7 6 6 5 5 4 4 5 5 5 8 10 11 12 9 5 4 3 3 2 2 3 2 2 2
7 6 6 6 6 5 5 5 4 5 5 5 5 5 6 6 7 7 8 7 7 6 6 5 5 5 6 6 7 9 9 9 8 6 6 5 4 3 2 2 3 3 3
6 6 6 6 6 6 5 5 4 5 6 6 5 5 6 6 6 6 6 5 6 7 6 7 6 6 8 8 7 7 6 6 11 13 12 10 10 10 7 3 2 2 3
6 6 6 6 6 6 6 5 5 5 6 6 6 6 6 6 6 6 5 4 5 5 6 7 9 8 8 7 6 6 5 4 5 5 6 6 6 7 8 6 3 2 2
6 6 6 6 6 6 6 5 5 6 6 6 6 6 6 6 6 7 6 3 4 5 5 5 5 8 9 8 6 5 4 2 2 3 3 3 3 4 5 7 6 4 3
7 7 7 6 5 5 6 5 5 6 7 6 6 5 5 5 6 6 7 6 5 5 5 5 5 7 7 7 5 4 4 2 1 2 4 4 4 3 3 5 6 6 5
7 7 6 6 5 5 5 5 5 4 4 5 5 5 4 4 5 8 9 9 9 6 6 7 6 6 5 5 5 5 4 3 3 3 3 3 3 3 3 3 3 2 3
7 7 6 6 5 4 3 3 3 2 3 4 4 5 5 4 4 3 4 6 8 7 6 6 5 3 2 3 3 3 2 3 2 3 3 3 2 2 2 1 1 1 1
7 7 6 6 6 6 6 5 4 5 3 2 3 4 4 4 3 3 3 3 4 5 4 3 2 2 2 2 2 2 2 2 2 2 2 1 1 1 1 1 0 1 1
6 6 6 5 6 6 7 8 13 10 12 13 12 8 7 8 8 7 8 8 7 5 3 2 2 2 2 2 2 2 2 2 2 1 1 1 1 1 1 1 1 1 1
5 5 5 6 6 6 6 6 6 8 13 13 12 12 10 9 9 8 7 5 3 2 2 2 2 2 1 1 1 2 2 1 1 1 1 1 1 1 1 1 1 1 2
5 6 5 5 5 5 5 5 6 6 6 5 7 9 8 7 6 5 5 3 1 2 2 2 2 2 1 1 2 2 2 1 1 1 1 1 1 1 1 1 1 1 2
5 4 4 5 5 5 5 5 5 6 6 6 5 4 4 5 4 2 1 0 1 1 1 2 2 2 2 2 2 1 1 1 1 1 1 1 1 1 2 2 1 0 1
5 7 5 5 5 5 5 5 5 6 6 6 5 5 4 3 3 3 2 2 2 1 1 2 2 2 2 2 1 1 1 1 1 0 0 0 1 1 1 2 2 2 2
5 6 6 5 4 4 4 4 4 5 5 5 5 6 6 4 4 4 3 2 2 1 1 1 2 2 2 2 2 2 1 1 1 0 0 1 1 1 2 2 2 3 2
4 4 4 5 5 4 4 4 4 4 5 5 5 6 7 3 3 3 3 2 2 1 1 1 1 2 2 2 2 1 1 1 1 0 1 1 2 2 2 2 2 2 2
4 4 5 5 4 5 3 3 3 4 4 4 5 5 5 4 2 2 2 2 2 2 2 1 1 1 2 2 2 1 0 1 0 0 2 2 2 2 2 2 3 3 3
4 4 5 5 4 4 3 3 3 3 4 4 4 4 4 3 3 2 2 2 2 2 2 2 2 2 2 2 2 2 1 1 1 2 3 4 4 3 3 3 3 4 4
4 4 4 4 4 3 3 3 3 3 4 4 3 3 3 3 3 3 3 2 3 2 3 3 3 4 4 4 4 4 3 3 2 3 4 5 5 4 4 5 4 5 4
3 3 3 3 3 2 3 2 2 2 3 3 2 2 3 3 3 3 3 3 3 3 3 4 4 5 6 7 7 7 7 6 6 6 6 6 5 5 5 5 6 6 6
Wind_Direction
166 165 152 162 175 176 176 172 149 126 134 148 139 158 175 185 190 191 231 212 219 228 244 221 226 277 318 325 320 314 302 192 203 209 138 61 83 93 111 120 114 107 110
146 141 137 140 152 157 161 153 134 124 122 110 110 115 132 120 110 112 171 185 91 64 356 359 324 299 313 311 325 331 330 184 174 174 169 152 114 117 124 129 121 114 115
144 137 130 134 137 140 134 127 127 127 124 107 92 98 94 104 103 92 81 65 71 70 61 62 37 20 354 357 354 359 0 31 140 163 171 173 163 154 139 134 121 121 127
138 134 132 136 133 125 120 114 116 119 109 98 85 80 78 77 75 80 90 87 81 75 66 65 58 55 43 29 32 13 15 52 125 140 152 158 161 172 152 148 129 107 101
136 136 136 128 123 120 118 114 109 109 112 103 96 85 84 82 76 95 108 106 95 86 74 70 70 71 64 60 59 38 35 48 102 131 133 126 125 141 158 158 131 123 87
135 139 134 126 124 123 119 115 110 108 109 106 104 92 78 71 63 76 88 89 85 82 80 82 85 73 77 73 69 62 55 52 44 85 101 110 100 78 75 96 106 117 109
141 140 137 135 127 120 119 114 110 109 107 104 99 98 88 66 61 71 83 89 83 76 74 71 72 68 71 75 74 66 56 49 51 70 79 83 88 62 82 98 99 99 109
146 143 141 135 129 121 118 114 113 111 109 104 102 99 94 73 67 68 82 84 81 74 69 70 73 60 53 70 83 75 63 48 52 67 74 68 71 59 55 129 144 130 106
149 145 142 134 128 123 120 114 110 109 107 102 99 98 93 77 63 67 83 97 91 82 74 66 72 70 55 70 86 89 86 80 74 82 87 85 79 70 61 63 70 119 124
148 140 136 132 128 125 121 119 116 112 106 105 99 94 94 86 65 63 79 113 108 102 91 76 66 67 57 62 85 89 85 77 88 89 81 78 84 80 68 53 45 51 95
121 116 118 122 123 121 119 118 120 117 111 106 100 93 90 86 81 69 61 95 111 113 103 89 75 70 63 58 68 80 88 93 117 121 116 106 91 76 67 58 47 51 64
116 116 114 113 118 121 120 119 122 126 124 120 114 104 92 85 75 73 67 68 85 96 99 96 88 79 72 63 63 60 50 37 79 95 92 89 88 79 74 79 74 73 86
117 116 113 108 105 115 126 134 143 150 144 137 136 127 114 104 89 83 81 77 79 89 96 103 101 91 80 68 66 55 36 25 42 69 79 85 94 101 99 96 97 87 73
126 125 124 120 115 107 108 116 123 128 138 142 140 134 130 123 111 106 109 102 102 100 108 116 114 93 72 79 75 57 50 35 42 62 83 96 112 121 121 119 152 178 147
136 137 134 127 118 95 74 53 64 58 64 99 124 128 137 130 118 98 116 117 116 106 125 144 147 135 127 115 99 78 70 59 49 52 59 79 95 98 99 98 18 330 42
139 139 134 133 127 120 112 85 56 63 63 65 66 79 87 101 116 101 87 86 89 99 105 133 134 130 122 123 131 123 92 55 31 42 37 41 45 51 71 69 45 4 356
135 132 133 135 136 136 135 129 114 77 65 65 71 80 94 107 103 94 87 85 97 118 117 122 118 107 98 113 111 104 104 93 8 32 43 37 27 21 58 78 68 2 351
123 122 126 131 137 139 137 135 135 134 122 95 75 85 101 105 100 94 93 93 151 182 159 141 140 137 132 108 96 91 102 119 107 48 45 27 12 8 6 9 77 43 336
112 116 118 118 120 122 127 126 123 126 123 123 121 105 108 116 104 99 100 198 180 158 162 141 137 141 136 116 99 92 87 84 76 44 32 19 351 350 355 351 9 30 277
96 92 106 116 118 121 125 128 128 131 131 133 136 135 143 151 157 171 195 238 209 184 175 142 136 133 125 125 135 151 144 144 159 182 264 319 310 319 310 304 310 304 293
115 115 116 121 123 124 126 125 126 131 133 138 145 152 164 180 180 177 183 209 210 192 173 154 148 150 155 160 168 172 166 157 151 211 299 293 297 297 294 285 286 295 306
116 128 131 123 121 120 127 133 137 141 147 151 148 154 176 208 207 186 185 190 196 183 175 181 170 159 156 160 150 158 191 188 176 227 276 268 267 273 274 282 296 307 307
119 122 118 115 119 124 143 148 149 154 152 148 143 151 176 208 207 175 177 181 185 176 168 171 161 150 146 136 137 145 212 306 276 327 304 299 298 298 300 304 308 308 308
121 120 122 127 133 151 160 157 160 154 149 147 155 166 176 188 198 188 191 190 185 176 180 196 200 193 166 156 180 198 211 238 278 300 306 298 293 297 297 292 292 297 303
137 136 138 142 148 159 159 155 153 148 147 158 171 173 181 189 192 195 188 187 192 197 210 218 204 192 194 198 190 192 195 205 235 280 287 284 282 287 291 291 288 286 282
127 134 140 143 150 154 148 147 147 147 152 162 169 176 193 203 201 195 192 193 203 202 213 221 213 206 206 210 207 204 201 209 230 252 257 269 276 276 283 283 286 284 284
Height
1530 1531 1533 1534 1536 1538 1539 1540 1542 1543 1544 1545 1546 1547 1548 1549 1550 1551 1552 1553 1554 1555 1555 1556 1556 1557 1558 1558 1558 1559 1559 1559 1559 1559 1561 1561 1562 1562 1562 1562 1562 1562 1562
1530 1531 1532 1534 1535 1537 1538 1539 1540 1541 1542 1544 1545 1545 1546 1547 1548 1549 1550 1551 1552 1552 1553 1553 1554 1554 1554 1555 1555 1555 1555 1555 1556 1555 1556 1557 1558 1558 1559 1559 1559 1559 1560
1530 1531 1532 1533 1534 1535 1537 1538 1539 1539 1541 1542 1543 1544 1544 1545 1546 1547 1548 1548 1549 1550 1550 1551 1551 1551 1551 1551 1552 1552 1552 1552 1552 1552 1553 1554 1555 1555 1556 1556 1557 1557 1557
1530 1531 1531 1533 1534 1535 1536 1537 1538 1538 1539 1540 1541 1542 1543 1544 1544 1545 1546 1546 1547 1548 1548 1548 1549 1549 1549 1549 1549 1549 1550 1549 1550 1550 1550 1551 1552 1553 1554 1554 1555 1555 1556
1529 1530 1531 1532 1533 1534 1535 1535 1536 1537 1538 1539 1540 1541 1541 1542 1543 1543 1544 1545 1545 1546 1546 1546 1547 1547 1547 1547 1547 1547 1547 1547 1548 1548 1548 1549 1549 1550 1551 1552 1552 1553 1554
1529 1530 1531 1532 1533 1533 1534 1534 1535 1535 1536 1537 1538 1539 1540 1541 1542 1542 1543 1543 1544 1544 1545 1545 1546 1545 1545 1546 1545 1545 1545 1545 1545 1546 1546 1546 1547 1548 1549 1550 1550 1551 1552
1528 1529 1530 1531 1532 1533 1533 1534 1534 1534 1535 1536 1537 1538 1539 1540 1541 1542 1542 1542 1543 1543 1544 1544 1544 1544 1545 1545 1545 1544 1544 1544 1545 1545 1545 1545 1546 1547 1548 1548 1549 1550 1550
1527 1528 1530 1531 1531 1532 1533 1533 1534 1534 1535 1536 1537 1538 1539 1539 1540 1541 1542 1542 1542 1542 1543 1543 1543 1543 1544 1544 1544 1544 1544 1544 1544 1544 1544 1544 1545 1546 1547 1548 1548 1549 1550
1526 1527 1529 1530 1530 1531 1532 1533 1533 1534 1534 1535 1536 1537 1538 1539 1540 1540 1541 1541 1542 1542 1543 1543 1543 1543 1543 1544 1544 1543 1543 1544 1544 1545 1545 1545 1545 1546 1547 1547 1547 1548 1549
1525 1526 1528 1529 1530 1530 1531 1532 1533 1534 1534 1535 1536 1537 1537 1538 1539 1540 1541 1541 1541 1542 1542 1542 1543 1543 1543 1544 1544 1544 1544 1544 1545 1545 1545 1546 1546 1546 1546 1547 1547 1547 1548
1524 1525 1527 1528 1529 1530 1531 1532 1533 1533 1534 1535 1535 1537 1537 1538 1539 1540 1541 1541 1541 1542 1542 1542 1542 1543 1543 1543 1544 1544 1544 1545 1545 1545 1546 1546 1547 1547 1546 1546 1546 1547 1547
1523 1524 1525 1527 1528 1529 1530 1531 1532 1533 1534 1535 1536 1537 1538 1538 1539 1540 1541 1541 1541 1541 1541 1542 1542 1543 1543 1543 1544 1544 1545 1545 1546 1547 1547 1547 1547 1547 1547 1547 1547 1547 1548
1522 1523 1524 1525 1527 1528 1529 1531 1532 1533 1534 1535 1536 1537 1537 1538 1539 1539 1540 1540 1541 1541 1542 1542 1543 1543 1544 1544 1545 1545 1545 1546 1546 1547 1547 1548 1548 1548 1548 1548 1548 1548 1548
1521 1522 1524 1525 1526 1527 1529 1530 1531 1532 1534 1535 1535 1536 1537 1537 1538 1539 1539 1540 1541 1541 1542 1542 1543 1544 1544 1545 1546 1546 1546 1547 1547 1548 1548 1548 1548 1549 1549 1549 1548 1548 1548
1520 1521 1523 1524 1526 1527 1528 1529 1530 1532 1533 1534 1535 1536 1536 1537 1538 1538 1539 1540 1540 1541 1542 1542 1543 1544 1545 1546 1546 1547 1547 1547 1548 1548 1549 1549 1549 1549 1549 1549 1549 1549 1549
1519 1520 1522 1524 1525 1526 1527 1528 1530 1531 1533 1534 1534 1535 1536 1537 1537 1538 1539 1540 1540 1541 1542 1543 1544 1545 1545 1546 1547 1547 1547 1548 1548 1549 1549 1549 1550 1550 1550 1549 1549 1549 1549
1519 1520 1521 1523 1525 1526 1527 1528 1529 1531 1532 1533 1534 1535 1536 1536 1537 1538 1539 1540 1541 1542 1543 1544 1545 1545 1546 1547 1547 1548 1548 1548 1548 1548 1549 1549 1550 1550 1550 1550 1549 1549 1549
1518 1520 1521 1523 1524 1525 1527 1528 1529 1530 1531 1532 1534 1535 1536 1537 1538 1539 1539 1540 1541 1542 1543 1544 1545 1546 1546 1547 1547 1548 1548 1548 1548 1549 1549 1549 1550 1550 1550 1550 1549 1549 1549
1518 1520 1521 1522 1524 1526 1527 1528 1529 1530 1532 1533 1534 1535 1536 1537 1538 1540 1540 1541 1542 1543 1544 1544 1545 1546 1546 1546 1547 1547 1547 1548 1548 1549 1549 1549 1549 1549 1549 1549 1549 1549 1548
1519 1520 1521 1522 1524 1525 1527 1529 1530 1531 1532 1533 1535 1536 1537 1538 1539 1540 1541 1542 1542 1543 1544 1544 1545 1545 1545 1546 1546 1547 1547 1547 1548 1548 1548 1549 1549 1549 1549 1549 1548 1548 1547
1519 1520 1522 1523 1524 1526 1527 1529 1530 1531 1533 1534 1535 1536 1537 1538 1540 1540 1541 1542 1542 1543 1543 1544 1544 1544 1544 1545 1545 1546 1547 1547 1547 1547 1548 1548 1548 1548 1548 1547 1547 1547 1546
1520 1521 1522 1524 1525 1527 1528 1529 1531 1532 1533 1534 1535 1537 1538 1539 1540 1541 1541 1542 1542 1542 1543 1543 1543 1544 1544 1544 1544 1545 1545 1546 1546 1546 1547 1547 1547 1547 1547 1546 1545 1545 1544
1521 1522 1523 1524 1526 1527 1529 1530 1531 1532 1533 1534 1536 1536 1537 1538 1539 1540 1541 1541 1541 1542 1542 1542 1542 1542 1543 1543 1543 1543 1544 1544 1545 1545 1545 1545 1545 1545 1545 1544 1543 1543 1542
1522 1524 1524 1525 1527 1528 1529 1530 1532 1533 1534 1535 1536 1537 1537 1538 1539 1539 1540 1540 1541 1541 1541 1541 1541 1541 1541 1541 1541 1542 1542 1542 1543 1543 1543 1542 1543 1542 1542 1541 1541 1540 1540
1524 1525 1526 1527 1528 1529 1530 1531 1532 1533 1534 1535 1536 1537 1537 1538 1538 1538 1539 1539 1539 1539 1539 1539 1539 1539 1539 1539 1539 1540 1540 1540 1540 1540 1540 1540 1540 1539 1539 1538 1538 1537 1536
1524 1526 1527 1528 1529 1530 1531 1531 1532 1533 1534 1535 1535 1536 1537 1537 1537 1537 1537 1537 1538 1537 1537 1537 1537 1537 1537 1537 1537 1537 1537 1537 1537 1537 1537 1537 1536 1536 1535 1535 1534 1534 1533